SPACEBEE-7

Last updated on Thu Nov 21 2024 00:03:40 GMT+0000 (Coordinated Universal Time)

1 43816U 18099BL 24325.42806358 .00026216 00000+0 11844-2 0 9997 2 43816 97.5274 27.9383 0008966 105.3235 254.8992 15.20900594326070
UTC large
Height (km)
Speed (km/s)
/
Latitude / Longitude
Inclination (degrees)
Orbital Period (minutes)
Azimuth
Elevation
Range (km)
Doppler Factor

Next 0 passes for location: London (51.5072 / 0.1276)

Sorry there are no passes over London.